Newark, OH

10:10 AM EDT on September 27, 2016 (GMT -0400)
Newark Heath

Weather History for KVTA - February, 2013

Change the Weather History Date:

Monday, February 11, 2013

  Actual Average Record
Temperature  
Mean Temperature 47 °F -  
Max Temperature 55 °F 38 °F 66 °F (2009)
Min Temperature 37 °F 20 °F -11 °F (2014)
Degree Days  
Heating Degree Days 18    
Moisture  
Dew Point 35 °F    
Average Humidity 67    
Maximum Humidity 89    
Minimum Humidity 47    
Precipitation  
Precipitation 0.00 in - - ()
Sea Level Pressure  
Sea Level Pressure 29.84 in    
Wind  
Wind Speed 14 mph (SW)    
Max Wind Speed 30 mph    
Max Gust Speed 46 mph    
Visibility 10 miles    
Events Rain    
Averages and records for this station are not official NWS values.
T = Trace of Precipitation, MM = Missing Value Source: NWS Daily Summary

Daily Weather History Graph

Daily Weather History Graph

Search for Another Location

Airport or City:

Trip Planner

Search our weather history database for the weather conditions in past years. The results will help you decide how hot, cold, wet, or windy it might be!

Date:

Astronomy

Feb. 11, 2013 Rise Set
Actual Time 7:27 AM EST 6:01 PM EST
Civil Twilight 6:59 AM EST 6:29 PM EST
Nautical Twilight 6:27 AM EST 7:01 PM EST
Astronomical Twilight 5:56 AM EST 7:32 PM EST
Moon 7:51 AM EST (2/11) 7:56 PM EST (2/11)
Length of Visible Light 11h 29m
Length of Day
10h 33m
Waxing Crescent, 3% of the Moon is Illuminated
Feb 11
Waxing Crescent
Feb 17
First Quarter
Feb 25
Full
Mar 4
Last Quarter
Mar 11
New

Hourly Weather History & Observations

Time (EST) Temp. Windchill Dew Point Humidity Pressure Visibility Wind Dir Wind Speed Gust Speed Precip Events Conditions
12:54 AM 46.0 °F 40.2 °F 39.9 °F 79% 29.84 in 10.0 mi South 12.7 mph - N/A   Overcast
1:54 AM 46.9 °F - 41.0 °F 80% 29.82 in 10.0 mi South 9.2 mph 19.6 mph 0.00 in   Overcast
2:20 AM 46.4 °F 41.9 °F 42.8 °F 87% 29.81 in 10.0 mi SSW 9.2 mph 17.3 mph 0.00 in Rain Light Rain
2:54 AM 46.9 °F - 42.1 °F 83% 29.82 in 10.0 mi South 9.2 mph - 0.00 in   Overcast
3:54 AM 48.0 °F - 44.1 °F 86% 29.78 in 10.0 mi South 9.2 mph - N/A   Overcast
4:54 AM 48.0 °F - 44.1 °F 86% 29.79 in 10.0 mi SSW 8.1 mph - N/A   Overcast
5:54 AM 48.0 °F - 44.1 °F 86% 29.77 in 10.0 mi SSW 8.1 mph - N/A   Partly Cloudy
6:54 AM 46.0 °F 42.5 °F 43.0 °F 89% 29.77 in 10.0 mi SSW 6.9 mph - N/A   Clear
7:54 AM 48.9 °F - 44.1 °F 83% 29.76 in 10.0 mi SSW 12.7 mph - N/A   Scattered Clouds
8:54 AM 52.0 °F - 44.1 °F 74% 29.76 in 10.0 mi SSW 12.7 mph 32.2 mph N/A   Mostly Cloudy
9:54 AM 53.1 °F - 41.0 °F 64% 29.76 in 10.0 mi SW 24.2 mph 34.5 mph N/A   Partly Cloudy
10:54 AM 55.0 °F - 37.9 °F 53% 29.76 in 10.0 mi SW 26.5 mph 38.0 mph N/A   Mostly Cloudy
11:54 AM 53.1 °F - 35.1 °F 50% 29.78 in 10.0 mi WSW 26.5 mph 38.0 mph N/A   Mostly Cloudy
12:54 PM 52.0 °F - 32.0 °F 47% 29.79 in 10.0 mi WSW 29.9 mph 38.0 mph N/A   Partly Cloudy
1:54 PM 50.0 °F - 30.9 °F 48% 29.80 in 10.0 mi West 28.8 mph 46.0 mph N/A   Clear
2:54 PM 48.9 °F - 30.9 °F 50% 29.83 in 10.0 mi West 18.4 mph 36.8 mph N/A   Mostly Cloudy
3:54 PM 46.0 °F 37.6 °F 28.9 °F 51% 29.86 in 10.0 mi West 24.2 mph 33.4 mph N/A   Partly Cloudy
4:54 PM 44.1 °F 36.8 °F 28.9 °F 55% 29.87 in 10.0 mi West 16.1 mph 23.0 mph N/A   Overcast
5:54 PM 43.0 °F 35.4 °F 28.0 °F 56% 29.89 in 10.0 mi West 16.1 mph - N/A   Overcast
6:54 PM 41.0 °F 32.8 °F 28.0 °F 60% 29.92 in 10.0 mi WNW 16.1 mph - N/A   Overcast
7:54 PM 39.0 °F 31.0 °F 28.0 °F 65% 29.95 in 10.0 mi West 13.8 mph 27.6 mph N/A   Overcast
8:54 PM 39.0 °F 30.3 °F 27.0 °F 62% 29.96 in 10.0 mi West 16.1 mph 21.9 mph N/A   Overcast
9:54 PM 39.9 °F 31.4 °F 26.1 °F 58% 29.96 in 10.0 mi West 16.1 mph 29.9 mph N/A   Overcast
10:54 PM 39.0 °F 30.6 °F 25.0 °F 57% 29.98 in 10.0 mi West 15.0 mph 27.6 mph N/A   Overcast
11:54 PM 37.9 °F 28.9 °F 26.1 °F 62% 29.99 in 10.0 mi WSW 16.1 mph 25.3 mph N/A   Overcast